FENGYUN 1C DEB, 29953

Orbit data source: Space-Track

FENGYUN 1C DEB, 29953 is space debris in SSO originally from a launch on Mon, 10 May 1999 UTC launched from the Taiyaun Space Center, China (TSC). Fengyun 1C debris stems from the Chinese weather satellite Fengyun-1C, which was intentionally destroyed by a Chinese anti-satellite missile in 2007. This event dramatically increased the amount of space debris, with thousands of trackable fragments posing hazards to satellites and human spaceflight. The Fengyun 1C debris cloud has become a focal point in discussions about space sustainability and the need for international regulations to prevent the creation of new debris.

Loading next visibility...
Identifier
29953, 1999-025KB
Orbit
SSO
Country
Flag of CNCN / PRC
Related business
Manufacturer
Unknown
Mission
Spacecraft
Bus & Motor
Unknown
Mass
Unknown
Launch date (UTC)
1999-05-10 (27 years ago)
Launch vehicle
Unknown
Launch site
Taiyaun Space Center, China (TSC)
Object type
Payload
Rocket body
Debris
Shape & HBR
Unknown shape, 0.1 m
Radar Cross Section
Medium (>0.1 m² and <1 m²)

Expand to show TLE details & history
Last TLE update: 6 hours ago

TLE from 6 hours ago
0 FENGYUN 1C DEB
1 29953U 99025KB  26255.92653409  .00000147  00000-0  14476-3 0  9998
2 29953  98.9629 237.9729 0104314 238.7934 177.3466 13.91058459996745
Epoch: 2026-09-12T22:14Z
TLE epoch observation values (Epoch: 2026-09-12T22:14:12.545Z)
Latitude
55.26139°
Longitude
-100.58578°
Altitude
1,010.15 km
Speed
7.313 km/s
True Right ascension
14h 59m 34s
True Declination
55° 06' 20"
Sunlit
Object was in daylight at epoch
Visualization orbit readout
Latitude
Unknown
Longitude
Unknown
Altitude
Unknown
Speed
Unknown
Apparent Right ascension
Unknown
Apparent Declination
Unknown
Sunlit
N/A
Visualization observer readout
Local Sidereal Time
20:48:59
Azimuth
Unknown
Elevation
Unknown
Doppler factor
Unknown
Orbital elements
Apogee altitude
998.285 km
Perigee altitude
845.981 km
Semi-major axis
7,300.27 km
Eccentricity
0.01043
Inclination
98.9629°
RAAN
237.9729°
Arg. of periapsis
238.7934°
True anomaly
177.40123°
Mean anomaly
177.3466°
Eccentric anomaly
177.37398°
Mean motion
3.47964 °/min
Orbital period
103.46 mins
BSTAR
0.00014476
Loading maneuver chart data...
Computing Atmospheric mass density...

Documentation

Showing up to 5 results
|